Tracking 27122 objects as of 26-Mar-2023
HD Live streaming from Space Station
objects crossing your sky now

STARLINK-2279

Track STARLINK-2279 now!
10-day predictions
STARLINK-2279 is classified as:


NORAD ID: 47991
Int'l Code: 2021-024Q
Perigee: 553.1 km
Apogee: 555.1 km
Inclination: 53.1 °
Period: 95.6 minutes
Semi major axis: 6925 km
RCS: Unknown
Launch date: March 24, 2021
Source: United States (US)
Launch site: AIR FORCE EASTERN TEST RANGE (AFETR)
Your satellite tracking list
Your tracking list is empty




NASA's NSSDC Master Catalog

Two Line Element Set (TLE):
1 47991U 21024Q   23084.43952147  .00026454  00000-0  17846-2 0  9990
2 47991  53.0529  71.0556 0001414  81.9065 278.2085 15.06474781112783
Source of the keplerian elements: AFSPC